This is the latest recevied weather packets stored in our database for station/object VK5KX. If no packets are shown the sender has not sent any weather packets the latest 10 day(s).
| Time | Temp. | Humidity | Pressure | Rain* | Wind** | Luminosity | Snow |
|---|---|---|---|---|---|---|---|
| 1777436120 | 28.89° C | 26% | 1022.6 hPa | 0 mm | - | - | - |
| 1777435219 | 28.33° C | 28% | 1022.7 hPa | 0 mm | - | - | - |
| 1777434317 | 28.33° C | 28% | 1022.9 hPa | 0 mm | - | - | - |
| 1777433418 | 28.33° C | 28% | 1023.2 hPa | 0 mm | - | - | - |
| 1777432510 | 28.89° C | 28% | 1023.4 hPa | 0 mm | - | - | - |
| 1777431608 | 28.33° C | 29% | 1023.7 hPa | 0 mm | - | - | - |
| 1777430704 | 28.33° C | 29% | 1023.9 hPa | 0 mm | - | - | - |
| 1777429802 | 27.78° C | 29% | 1024.2 hPa | 0 mm | - | - | - |
| 1777428967 | 27.22° C | 30% | 1024.4 hPa | 0 mm | - | - | - |
| 1777428062 | 27.22° C | 30% | 1024.5 hPa | 0 mm | - | - | - |
| 1777427185 | 27.22° C | 30% | 1024.7 hPa | 0 mm | - | - | - |
| 1777426257 | 27.22° C | 31% | 1024.9 hPa | 0 mm | - | - | - |
| 1777425354 | 26.67° C | 32% | 1024.9 hPa | 0 mm | - | - | - |
| 1777424463 | 26.67° C | 32% | 1025 hPa | 0 mm | - | - | - |
| 1777423568 | 26.11° C | 33% | 1025 hPa | 0 mm | - | - | - |
| 1777422653 | 26.11° C | 36% | 1025.1 hPa | 0 mm | - | - | - |
| 1777421743 | 25° C | 39% | 1025.1 hPa | 0 mm | - | - | - |
| 1777420839 | 24.44° C | 41% | 1025.2 hPa | 0 mm | - | - | - |
| 1777419936 | 23.33° C | 42% | 1025.2 hPa | 0 mm | - | - | - |
| 1777419032 | 22.78° C | 45% | 1025.2 hPa | 0 mm | - | - | - |
| 1777418127 | 21.67° C | 48% | 1025.3 hPa | 0 mm | - | - | - |
| 1777417231 | 21.11° C | 50% | 1025.2 hPa | 0 mm | - | - | - |
| 1777416319 | 20.56° C | 52% | 1025.1 hPa | 0 mm | - | - | - |
| 1777415418 | 20° C | 54% | 1025 hPa | 0 mm | - | - | - |
| 1777414513 | 19.44° C | 55% | 1024.8 hPa | 0 mm | - | - | - |
* Rain latest hour (hover to see other rain measurements)
** Current wind speed in m/s (hover to see current wind gust speed)